Notices

What's New in latest Release from April 7th, 2021:

- Updated Glossary, including Speed of Maximum Gust, and Total Hourly Precipitation

- Updated national and regional climate services offices contacts and prices information

- Addition of station inventory lists for 1981-2010, 1971-2000, and 1961-1990 Normals.

If you haven't already, please take our survey and provide feedback about our website: https://eccc.sondage-survey.ca/f/LanguageSelection.aspx?s=442ca660-fcf1-47c0-95a9-59707d6fd709

Hourly Data Report for December 13, 2016

CARBERRY CS
MANITOBA

49°54'20.900" N
99°21'26.800" W
383.50 m
5010547
71170
WZE

Download Data

Hourly Data (December 2016)
Hourly Data Report for December 13, 2016
TIME
LST
Temp Definition
°C
Dew Point Definition
°C
Rel Hum Definition
%
Precip. Amount Definition
mm

Wind Dir Definition
10's deg

Wind Spd Definition
km/h
Visibility Definition
km
Stn Press Definition
kPa
Hmdx Definition


Wind Chill Definition


Weather Definition


00:00 -23.5 -27.6 69 0.0 27 22   96.63   -35 LegendNANA
01:00 -23.7 -28.0 67 0.0 25 15   96.65   -34 LegendNANA
02:00 -22.5 -27.5 64 0.0 27 27   96.65   -35 LegendNANA
03:00 -22.0 -26.5 67 0.0 25 22   96.67   -34 LegendNANA
04:00 -21.7 -26.7 64 0.0 25 26   96.64   -34 LegendNANA
05:00 -21.4 -26.4 64 0.0 25 26   96.59   -34 LegendNANA
06:00 -21.7 -26.1 67 0.0 24 18   96.51   -32 LegendNANA
07:00 -20.8 -24.0 75 0.0 24 23   96.44   -32 LegendNANA
08:00 -20.0 -23.6 73 0.0 25 23   96.41   -31 LegendNANA
09:00 -20.0 -23.5 73 0.0 24 14   96.46   -29 LegendNANA
10:00 -18.4 -22.8 68 0.0 25 19   96.47   -28 LegendNANA
11:00 -16.7 -22.4 61 0.0 25 14   96.42   -25 LegendNANA
12:00 -16.2 -21.3 65 0.0 23 15   96.35   -24 LegendNANA
13:00 -15.9 -21.2 63 0.0 24 22   96.25   -26 LegendNANA
14:00 -15.3 -19.9 67 0.0 26 27   96.19   -26 LegendNANA
15:00 -15.1 -18.7 74 0.0 28 30   96.21   -26 LegendNANA
16:00 -15.8 -18.7 78 0.0 27 19   96.21   -25 LegendNANA
17:00 -18.7 -21.1 82 0.0 29 8   96.22   -25 LegendNANA
18:00 -18.1 -22.4 69 0.0 28 18   96.22   -28 LegendNANA
19:00 -18.2 -23.0 66 0.0 28 24   96.24   -29 LegendNANA
20:00 -18.6 -23.6 65 0.0 27 27   96.32   -30 LegendNANA
21:00 -19.0 -23.9 65 0.0 30 39   96.44   -33 LegendNANA
22:00 -20.6 -25.9 63 0.0 30 27   96.57   -33 LegendNANA
23:00 -22.7 -28.1 61 0.0 29 24   96.68   -35 LegendNANA

Notes on Data Quality.

Legend

  • E = Estimated
  • M = Missing
  • NA = Not Available*
  • [empty] = Indicates an unobserved value
Date modified: